Location: Champseau
(45.8333°N, 1.7667°E)
Time: 06:52:14
(UTC+00:00)

Okean 3 Rocket - Pass Details

Date: 18 April 2021
Orbit: 615 x 645 km, 82.5° (Epoch: 15 May)

Event Time Altitude Azimuth Distance (km) Brightness Sun altitude
Rises 20:52:41 0° 358° (N) 2,966 7.7 -20.2°
Reaches altitude 10° 20:55:06 10° 7° (N) 2,049 6.7 -20.5°
Maximum altitude 20:59:19 37° 74° (ENE) 1,005 4.3 -21.1°
Enters shadow 20:59:22 37° 76° (ENE) 1,005 4.3 -21.1°
